Weather History for K2G4 - April, 2013

Change the Weather History Date:

Thursday, April 25, 2013

  Actual Average (KMGW) Record (KMGW)
Temperature  
Mean Temperature 40 °F 56 °F  
Max Temperature 51 °F 67 °F 88 °F (2009)
Min Temperature 30 °F 44 °F 26 °F (1956)
Degree Days  
Heating Degree Days 24 10  
Month to date heating degree days 335  
Since 1 July heating degree days 4936  
Cooling Degree Days 0 1  
Month to date cooling degree days 7  
Year to date cooling degree days 9  
Moisture  
Dew Point 27 °F    
Average Humidity 68    
Maximum Humidity 100    
Minimum Humidity 30    
Precipitation  
Precipitation 0.00 in 0.12 in 1.03 in (1975)
Month to date precipitation 2.93  
Year to date precipitation 11.99  
Sea Level Pressure  
Sea Level Pressure 30.20 in    
Wind  
Wind Speed 10 mph (West)    
Max Wind Speed 17 mph    
Max Gust Speed 29 mph    
Visibility 10 miles    
Events      
T = Trace of Precipitation, MM = Missing Value Source: NWS Daily Summary

Daily Weather History Graph

Daily Weather History Graph

Search for Another Location

Airport or City:

Trip Planner

Search our weather history database for the weather conditions in past years. The results will help you decide how hot, cold, wet, or windy it might be!

Date:

Astronomy

Apr. 25, 2013 Rise Set
Actual Time 6:25 AM EDT 8:05 PM EDT
Civil Twilight 5:57 AM EDT 8:34 PM EDT
Nautical Twilight 5:22 AM EDT 9:08 PM EDT
Astronomical Twilight 4:45 AM EDT 9:45 PM EDT
Moon 8:16 PM EDT (4/25) 6:07 AM EDT (4/25)
Length of Visible Light 14h 37m
Length of Day
13h 39m
Full, 100% of the Moon is Illuminated
Apr 25
Full
Apr 25
Full
May 2
Last Quarter
May 9
New
May 18
First Quarter

Hourly Weather History & Observations

Time (EDT) Temp. Windchill Dew Point Humidity Pressure Visibility Wind Dir Wind Speed Gust Speed Precip Events Conditions
12:00 AM 33.8 °F 23.9 °F 33.8 °F 100% 30.09 in 10.0 mi West 15.0 mph 26.5 mph N/A   Overcast
12:20 AM 32.0 °F 20.8 °F 32.0 °F 100% 30.09 in 10.0 mi West 17.3 mph 28.8 mph N/A   Mostly Cloudy
12:40 AM 32.0 °F 22.1 °F 32.0 °F 100% 30.11 in 10.0 mi West 13.8 mph 23.0 mph N/A   Mostly Cloudy
1:00 AM 32.0 °F 23.6 °F 32.0 °F 100% 30.11 in 10.0 mi West 10.4 mph 21.9 mph N/A   Overcast
1:20 AM 32.0 °F 22.5 °F 32.0 °F 100% 30.11 in 10.0 mi WNW 12.7 mph 21.9 mph N/A   Overcast
1:40 AM 32.0 °F 23.6 °F 32.0 °F 100% 30.12 in 10.0 mi West 10.4 mph 17.3 mph N/A   Overcast
2:00 AM 32.0 °F 23.0 °F 32.0 °F 100% 30.12 in 10.0 mi West 11.5 mph 17.3 mph N/A   Overcast
2:20 AM 32.0 °F 22.1 °F 32.0 °F 100% 30.12 in 10.0 mi WNW 13.8 mph 19.6 mph N/A   Overcast
3:00 AM 32.0 °F 23.0 °F 32.0 °F 100% 30.12 in 10.0 mi West 11.5 mph 17.3 mph N/A   Overcast
3:20 AM 32.0 °F 24.2 °F 32.0 °F 100% 30.13 in 10.0 mi West 9.2 mph 20.7 mph N/A   Overcast
3:40 AM 32.0 °F 22.5 °F 32.0 °F 100% 30.14 in 10.0 mi West 12.7 mph 18.4 mph N/A   Overcast
4:00 AM 32.0 °F 24.8 °F 32.0 °F 100% 30.15 in 10.0 mi WNW 8.1 mph 16.1 mph N/A   Overcast
4:20 AM 32.0 °F 24.2 °F 32.0 °F 100% 30.15 in 10.0 mi WNW 9.2 mph 16.1 mph N/A   Overcast
4:40 AM 32.0 °F 23.6 °F 32.0 °F 100% 30.15 in 10.0 mi WNW 10.4 mph 18.4 mph N/A   Overcast
5:00 AM 32.0 °F 24.2 °F 32.0 °F 100% 30.16 in 10.0 mi West 9.2 mph - N/A   Overcast
5:20 AM 32.0 °F 24.8 °F 32.0 °F 100% 30.16 in 10.0 mi West 8.1 mph - N/A   Overcast
5:40 AM 30.2 °F 23.4 °F 30.2 °F 100% 30.16 in 10.0 mi WNW 6.9 mph 16.1 mph N/A   Overcast
6:00 AM 30.2 °F 24.3 °F 30.2 °F 100% 30.16 in 10.0 mi WNW 5.8 mph - N/A   Overcast
6:20 AM 30.2 °F 24.3 °F 30.2 °F 100% 30.16 in 10.0 mi WNW 5.8 mph - N/A   Mostly Cloudy
6:40 AM 30.2 °F 23.4 °F 30.2 °F 100% 30.17 in 10.0 mi West 6.9 mph - N/A   Scattered Clouds
7:00 AM 30.2 °F 22.6 °F 30.2 °F 100% 30.18 in 10.0 mi West 8.1 mph - N/A   Mostly Cloudy
7:20 AM 30.2 °F 22.6 °F 30.2 °F 100% 30.19 in 10.0 mi West 8.1 mph - N/A   Scattered Clouds
7:40 AM 32.0 °F 27.5 °F 32.0 °F 100% 30.19 in 10.0 mi WNW 4.6 mph - N/A   Scattered Clouds
8:00 AM 32.0 °F 26.4 °F 32.0 °F 100% 30.20 in 10.0 mi WNW 5.8 mph - N/A   Overcast
8:20 AM 32.0 °F 26.4 °F 32.0 °F 100% 30.20 in 10.0 mi West 5.8 mph - N/A   Overcast
8:40 AM 32.0 °F 23.6 °F 32.0 °F 100% 30.21 in 10.0 mi West 10.4 mph - N/A   Overcast
9:00 AM 33.8 °F 26.4 °F 32.0 °F 93% 30.21 in 10.0 mi West 9.2 mph - N/A   Mostly Cloudy
9:20 AM 33.8 °F 25.8 °F 30.2 °F 87% 30.22 in 10.0 mi West 10.4 mph 16.1 mph N/A   Scattered Clouds
9:40 AM 33.8 °F 28.6 °F 30.2 °F 87% 30.22 in 10.0 mi West 5.8 mph - N/A   Mostly Cloudy
10:00 AM 35.6 °F 29.9 °F 30.2 °F 81% 30.23 in 10.0 mi West 6.9 mph - N/A   Mostly Cloudy
10:45 AM 37.4 °F 31.4 °F 30.2 °F 75% 30.22 in 10.0 mi West 8.1 mph - N/A   Scattered Clouds
11:05 AM 37.4 °F 32.1 °F 28.4 °F 70% 30.23 in 10.0 mi West 6.9 mph - N/A   Clear
11:25 AM 41.0 °F 36.4 °F 28.4 °F 61% 30.24 in 10.0 mi West 6.9 mph - N/A   Clear
11:45 AM 41.0 °F 35.8 °F 28.4 °F 61% 30.23 in 10.0 mi SW 8.1 mph - N/A   Clear
12:05 PM 41.0 °F 34.7 °F 28.4 °F 61% 30.24 in 10.0 mi West 10.4 mph - N/A   Clear
12:25 PM 42.8 °F 36.6 °F 26.6 °F 53% 30.24 in 10.0 mi West 11.5 mph - N/A   Clear
12:45 PM 44.6 °F 39.7 °F 26.6 °F 49% 30.23 in 10.0 mi West 9.2 mph - N/A   Clear
1:05 PM 44.6 °F 42.2 °F 28.4 °F 53% 30.23 in 10.0 mi West 4.6 mph - N/A   Clear
1:25 PM 46.4 °F 41.9 °F 28.4 °F 50% 30.23 in 10.0 mi West 9.2 mph - N/A   Clear
1:45 PM 46.4 °F 42.9 °F 28.4 °F 50% 30.22 in 10.0 mi SW 6.9 mph - N/A   Clear
2:05 PM 46.4 °F 42.9 °F 26.6 °F 46% 30.22 in 10.0 mi SW 6.9 mph - N/A   Clear
2:25 PM 46.4 °F 41.5 °F 23.0 °F 40% 30.22 in 10.0 mi WNW 10.4 mph 17.3 mph N/A   Clear
2:45 PM 48.2 °F - 23.0 °F 37% 30.21 in 10.0 mi West 8.1 mph 17.3 mph N/A   Clear
3:05 PM 48.2 °F - 21.2 °F 34% 30.21 in 10.0 mi WSW 8.1 mph 16.1 mph N/A   Clear
3:25 PM 50.0 °F - 21.2 °F 32% 30.21 in 10.0 mi West 10.4 mph 18.4 mph N/A   Clear
3:45 PM 50.0 °F - 21.2 °F 32% 30.20 in 10.0 mi West 8.1 mph 18.4 mph N/A   Clear
4:05 PM 50.0 °F - 21.2 °F 32% 30.20 in 10.0 mi WSW 10.4 mph 23.0 mph N/A   Clear
4:25 PM 50.0 °F - 21.2 °F 32% 30.20 in 10.0 mi West 13.8 mph 21.9 mph N/A   Clear
4:45 PM 51.8 °F - 21.2 °F 30% 30.19 in 10.0 mi WSW 8.1 mph 17.3 mph N/A   Clear
5:05 PM 50.0 °F - 21.2 °F 32% 30.19 in 10.0 mi WSW 11.5 mph 16.1 mph N/A   Clear
5:25 PM 50.0 °F - 19.4 °F 30% 30.20 in 10.0 mi WSW 11.5 mph 19.6 mph N/A   Clear
5:45 PM 50.0 °F - 19.4 °F 30% 30.20 in 10.0 mi West 11.5 mph 23.0 mph N/A   Clear
6:05 PM 50.0 °F - 21.2 °F 32% 30.21 in 10.0 mi West 10.4 mph 17.3 mph N/A   Clear
6:25 PM 50.0 °F - 19.4 °F 30% 30.22 in 10.0 mi West 12.7 mph 20.7 mph N/A   Clear
6:45 PM 46.4 °F 41.5 °F 21.2 °F 37% 30.22 in 10.0 mi WSW 10.4 mph 18.4 mph N/A   Scattered Clouds
7:05 PM 46.4 °F 40.7 °F 21.2 °F 37% 30.23 in 10.0 mi West 12.7 mph 18.4 mph N/A   Scattered Clouds
7:45 PM 44.6 °F 40.2 °F 23.0 °F 43% 30.24 in 10.0 mi West 8.1 mph - N/A   Mostly Cloudy
8:05 PM 44.6 °F 40.7 °F 23.0 °F 43% 30.24 in 10.0 mi West 6.9 mph - N/A   Scattered Clouds
8:25 PM 44.6 °F 40.7 °F 23.0 °F 43% 30.25 in 10.0 mi West 6.9 mph - N/A   Clear
8:45 PM 42.8 °F 38.6 °F 23.0 °F 46% 30.25 in 10.0 mi West 6.9 mph - N/A   Clear
9:05 PM 42.8 °F 39.3 °F 23.0 °F 46% 30.27 in 10.0 mi West 5.8 mph - N/A   Clear
9:25 PM 42.8 °F 38.0 °F 23.0 °F 46% 30.27 in 10.0 mi West 8.1 mph - N/A   Clear
9:45 PM 42.8 °F 37.5 °F 23.0 °F 46% 30.28 in 10.0 mi West 9.2 mph - N/A   Clear
10:05 PM 42.8 °F 38.6 °F 23.0 °F 46% 30.29 in 10.0 mi West 6.9 mph - N/A   Clear
10:25 PM 42.8 °F 39.3 °F 23.0 °F 46% 30.29 in 10.0 mi West 5.8 mph - N/A   Clear
10:45 PM 41.0 °F 37.1 °F 23.0 °F 49% 30.29 in 10.0 mi West 5.8 mph - N/A   Clear
11:05 PM 41.0 °F 37.1 °F 23.0 °F 49% 30.29 in 10.0 mi West 5.8 mph - N/A   Scattered Clouds
11:25 PM 41.0 °F 37.1 °F 24.8 °F 53% 30.30 in 10.0 mi West 5.8 mph - N/A   Scattered Clouds
11:40 PM 42.8 °F 39.3 °F 24.8 °F 49% 30.29 in 10.0 mi West 5.8 mph - N/A   Mostly Cloudy